OV1-5 DEB, 5361

Orbit data source: Space-Track

OV1-5 DEB, 5361 is space debris in LEO originally from a launch on Wed, 30 Mar 1966 UTC launched from the Air Force Western Test Range (AFWTR). Debris objects in space refer to the collection of defunct objects orbiting the Earth. Examples of debris include non-operational satellites, rocket bodies, and fragments generated from explosions, collisions, or faulty payload assembly.

Loading next visibility...
Identifier
5361, 1966-025F
Orbit
LEO
Last TLE update
5 hours ago
Origin
Flag of USAir Force Systems Command (OAR legacy assets) (US)
Manufacturer
Unknown
Mission
Spacecraft
Bus & Motor
Unknown
Mass
Unknown
Launch date (UTC)
1966-03-30 (59 years ago)
Launch vehicle
Unknown
Launch site
Air Force Western Test Range (AFWTR)
Object type
Payload
Rocket body
Debris
Shape & HBR
Unknown
Radar Cross Section
Small (<0.1 m²)

Expand to show TLE details & history

TLE from 5 hours ago
0 OV1-5 DEB
1  5361U 66025F   25200.41713515  .00005909  00000-0  14400-2 0  9994
2  5361 144.6129 258.3757 0021402  65.0001 295.2919 14.49027447320488
Epoch: 2025-07-19T10:00Z
TLE epoch observation values (Epoch: 2025-07-19T10:00:40.476Z)
Latitude
-0.00001°
Longitude
170.75253°
Altitude
721.338 km
Speed
7.5 km/s
True Right ascension
17h 13m 30s
True Declination
0° 00' 00"
Sunlit
Object was in full shadow at epoch
Visualization orbit readout
Latitude
35.52724°
Longitude
83.16775°
Altitude
715.545 km
Speed
7.511 km/s
Apparent Right ascension
13h 34m 15s
Apparent Declination
0° 12' 11"
Sunlit
Object is in daylight
Visualization observer readout
Local Sidereal Time
04:13:01
Azimuth
52.137° ENE
Elevation
-36.011°
Doppler factor
1
Orbital elements
Apogee altitude
747.129 km
Perigee altitude
716.695 km
Semi-major axis
7,110.049 km
Eccentricity
0.00214
Inclination
144.6129°
RAAN
258.3757°
Arg. of periapsis
65.0001°
True anomaly
295.06991°
Mean anomaly
295.2919°
Eccentric anomaly
295.18093°
Mean motion
3.62021 °/min
Orbital period
99.44 mins
BSTAR
0.00144
Loading maneuver chart data...
Loading SW <> Apogee altitude chart data...
Loading historical data...
Loading historical data...
Loading historical data...
Loading historical data...
Loading historical data...
Loading historical data...
Loading historical data...
|